�������l�o���
Date,Time,MP-1(��Sv/h),MP-2(��Sv/h),MP-3(��Sv/h),MP-4(��Sv/h),MP-5(��Sv/h),MP-6(��Sv/h),MP-7(��Sv/h),����,����(m/s),���J
2015/05/25,00:00,0.555,0.330,0.592,0.548,0.482,0.253,0.228,��쐼,1.8,��
2015/05/25,00:10,0.554,0.332,0.593,0.552,0.478,0.255,0.229,��쐼,1.6,��
2015/05/25,00:20,0.557,0.331,0.592,0.549,0.482,0.255,0.229,��쐼,1.4,��
2015/05/25,00:30,0.555,0.328,0.594,0.550,0.476,0.254,0.228,-,CALM,��
2015/05/25,00:40,0.555,0.334,0.589,0.553,0.482,0.254,0.228,�k,0.5,��
2015/05/25,00:50,0.556,0.330,0.594,0.550,0.479,0.254,0.228,�k,2.4,��
2015/05/25,01:00,0.554,0.332,0.588,0.552,0.482,0.255,0.229,�k,3.7,��
2015/05/25,01:10,0.558,0.331,0.596,0.548,0.478,0.254,0.229,�k,4.3,��
2015/05/25,01:20,0.553,0.332,0.589,0.551,0.482,0.254,0.228,�k�k��,4.4,��
2015/05/25,01:30,0.558,0.331,0.595,0.547,0.480,0.255,0.230,�k,6.8,��
2015/05/25,01:40,0.553,0.331,0.589,0.552,0.480,0.254,0.229,�k�k��,6.6,��
2015/05/25,01:50,0.557,0.331,0.593,0.549,0.480,0.254,0.228,�k�k��,5.9,��
2015/05/25,02:00,0.551,0.331,0.590,0.549,0.482,0.254,0.228,�k,5.4,��
2015/05/25,02:10,0.558,0.332,0.593,0.550,0.481,0.255,0.228,�k�k��,6.2,��
2015/05/25,02:20,0.552,0.329,0.590,0.550,0.479,0.254,0.228,�k�k��,8.5,��
2015/05/25,02:30,0.557,0.332,0.592,0.553,0.483,0.254,0.230,�k�k��,9.5,��
2015/05/25,02:40,0.553,0.330,0.592,0.547,0.479,0.254,0.229,�k�k��,9.2,��
2015/05/25,02:50,0.556,0.330,0.592,0.551,0.483,0.253,0.228,�k�k��,8.9,��
2015/05/25,03:00,0.553,0.331,0.591,0.548,0.478,0.253,0.228,�k�k��,10.2,��
2015/05/25,03:10,0.555,0.332,0.591,0.551,0.482,0.253,0.227,�k�k��,10.2,��
2015/05/25,03:20,0.551,0.330,0.593,0.549,0.476,0.254,0.228,�k�k��,10.7,��
2015/05/25,03:30,0.557,0.329,0.591,0.551,0.483,0.253,0.228,�k�k��,10.4,��
2015/05/25,03:40,0.551,0.331,0.591,0.549,0.478,0.253,0.227,�k�k��,10.4,��
2015/05/25,03:50,0.557,0.329,0.591,0.548,0.482,0.253,0.226,�k�k��,10.5,��
2015/05/25,04:00,0.552,0.330,0.590,0.548,0.478,0.252,0.228,�k�k��,10.8,��
2015/05/25,04:10,0.558,0.327,0.592,0.548,0.481,0.252,0.227,�k�k��,9.5,��
2015/05/25,04:20,0.552,0.330,0.589,0.549,0.477,0.252,0.227,�k�k��,10.1,��
2015/05/25,04:30,0.556,0.329,0.591,0.548,0.482,0.253,0.228,�k�k��,9.9,��
2015/05/25,04:40,0.553,0.331,0.590,0.548,0.476,0.253,0.228,�k�k��,9.2,��
2015/05/25,04:50,0.555,0.329,0.590,0.550,0.480,0.253,0.227,�k�k��,9.2,��
2015/05/25,05:00,0.553,0.330,0.589,0.549,0.477,0.252,0.227,�k�k��,8.8,��
2015/05/25,05:10,0.554,0.329,0.593,0.546,0.482,0.253,0.227,�k�k��,8.7,��
2015/05/25,05:20,0.553,0.331,0.589,0.547,0.475,0.254,0.228,�k�k��,7.8,��
2015/05/25,05:30,0.555,0.330,0.591,0.548,0.481,0.252,0.226,�k�k��,7.0,��
2015/05/25,05:40,0.552,0.330,0.588,0.548,0.475,0.254,0.227,�k�k��,7.4,��
2015/05/25,05:50,0.552,0.329,0.590,0.548,0.480,0.252,0.225,�k,7.8,��
2015/05/25,06:00,0.556,0.330,0.588,0.547,0.475,0.252,0.229,�k,7.2,��
2015/05/25,06:10,0.550,0.331,0.593,0.548,0.480,0.253,0.227,�k,6.7,��
2015/05/25,06:20,0.557,0.327,0.588,0.545,0.479,0.252,0.225,�k,4.7,��
2015/05/25,06:30,0.550,0.331,0.593,0.550,0.477,0.252,0.227,�k,6.4,��
2015/05/25,06:40,0.553,0.330,0.586,0.542,0.480,0.254,0.225,�k,6.2,��
2015/05/25,06:50,0.552,0.326,0.588,0.549,0.476,0.251,0.224,�k,7.3,��
2015/05/25,07:00,0.552,0.330,0.592,0.545,0.481,0.253,0.225,�k,6.4,��
2015/05/25,07:10,0.556,0.330,0.585,0.548,0.477,0.252,0.226,�k�k��,7.5,��
2015/05/25,07:20,0.551,0.327,0.580,0.550,0.479,0.252,0.225,�k,7.4,��
2015/05/25,07:30,0.556,0.331,0.590,0.542,0.480,0.252,0.225,�k�k��,8.2,��
2015/05/25,07:40,0.551,0.328,0.589,0.543,0.474,0.252,0.226,�k,7.8,��
2015/05/25,07:50,0.554,0.327,0.584,0.549,0.482,0.252,0.227,�k,7.5,��
2015/05/25,08:00,0.554,0.330,0.583,0.545,0.479,0.254,0.226,�k,8.8,��
2015/05/25,08:10,0.551,0.331,0.592,0.540,0.473,0.252,0.224,�k,8.3,��
2015/05/25,08:20,0.554,0.327,0.592,0.543,0.481,0.253,0.224,�k�k��,8.6,��
2015/05/25,08:30,0.552,0.330,0.589,0.549,0.477,0.253,0.227,�k�k��,9.9,��
2015/05/25,08:40,0.551,0.330,0.596,0.546,0.474,0.251,0.226,�k�k��,10.5,��
2015/05/25,08:50,0.559,0.328,0.590,0.544,0.482,0.253,0.224,�k�k��,10.9,��
2015/05/25,09:00,0.550,0.330,0.594,0.541,0.480,0.252,0.227,�k�k��,11.0,��
2015/05/25,09:10,0.555,0.330,0.595,0.545,0.474,0.253,0.226,�k�k��,11.5,��
2015/05/25,09:20,0.554,0.329,0.590,0.550,0.481,0.252,0.226,�k�k��,11.5,��
2015/05/25,09:30,0.551,0.331,0.596,0.548,0.478,0.253,0.226,�k�k��,10.7,��
2015/05/25,09:40,0.558,0.329,0.588,0.544,0.476,0.253,0.227,�k,14.0,��
2015/05/25,09:50,0.552,0.328,0.591,0.541,0.483,0.251,0.227,�k,10.9,��
2015/05/25,10:00,0.554,0.331,0.594,0.541,0.478,0.253,0.226,�k,10.4,��
2015/05/25,10:10,0.555,0.328,0.585,0.542,0.476,0.253,0.228,�k�k��,11.6,��
2015/05/25,10:20,0.551,0.330,0.588,0.552,0.481,0.251,0.227,�k�k��,9.4,��
2015/05/25,10:30,0.558,0.332,0.593,0.550,0.477,0.253,0.226,�k�k��,10.9,��
2015/05/25,10:40,0.554,0.329,0.588,0.549,0.477,0.254,0.227,�k�k��,8.1,��
2015/05/25,10:50,0.552,0.331,0.586,0.545,0.483,0.251,0.228,�k�k��,8.2,��
2015/05/25,11:00,0.558,0.331,0.584,0.544,0.478,0.251,0.226,�k�k��,8.9,��
2015/05/25,11:10,0.551,0.327,0.592,0.544,0.475,0.254,0.227,�k�k��,9.1,��
2015/05/25,11:20,0.556,0.330,0.590,0.554,0.484,0.253,0.230,�k�k��,8.7,��
2015/05/25,11:30,0.556,0.331,0.586,0.551,0.480,0.252,0.227,�k�k��,9.4,��
2015/05/25,11:40,0.552,0.329,0.584,0.547,0.474,0.252,0.227,�k�k��,7.3,��
2015/05/25,11:50,0.558,0.333,0.590,0.545,0.480,0.254,0.228,�k�k��,8.5,��
2015/05/25,12:00,0.554,0.329,0.596,0.550,0.481,0.253,0.228,�k�k��,8.3,��
2015/05/25,12:10,0.554,0.329,0.591,0.549,0.477,0.252,0.227,�k�k��,8.7,��
2015/05/25,12:20,0.559,0.332,0.589,0.549,0.473,0.253,0.230,�k�k��,8.5,��
2015/05/25,12:30,0.553,0.329,0.586,0.547,0.480,0.253,0.228,�k�k��,8.8,��
2015/05/25,12:40,0.560,0.330,0.584,0.543,0.481,0.254,0.227,�k�k��,8.4,��
2015/05/25,12:50,0.554,0.331,0.593,0.553,0.475,0.252,0.227,�k,5.2,��
2015/05/25,13:00,0.556,0.330,0.590,0.551,0.474,0.253,0.230,�k,5.7,��
2015/05/25,13:10,0.556,0.331,0.590,0.546,0.481,0.254,0.228,�k,5.6,��
2015/05/25,13:20,0.555,0.330,0.587,0.545,0.482,0.254,0.226,�k��,5.0,��
2015/05/25,13:30,0.558,0.329,0.585,0.554,0.475,0.252,0.228,�k��,4.8,��
2015/05/25,13:40,0.552,0.332,0.599,0.552,0.476,0.252,0.228,�k��,1.9,��
2015/05/25,13:50,0.559,0.331,0.594,0.547,0.483,0.254,0.227,�k�k��,1.5,��
2015/05/25,14:00,0.555,0.331,0.589,0.551,0.479,0.253,0.229,�k,1.8,��
2015/05/25,14:10,0.555,0.332,0.593,0.554,0.475,0.252,0.228,-,CALM,��
2015/05/25,14:20,0.558,0.329,0.596,0.547,0.484,0.254,0.227,�k�k��,1.9,��
2015/05/25,14:30,0.553,0.332,0.591,0.551,0.479,0.253,0.229,�k,2.5,��
2015/05/25,14:40,0.559,0.330,0.594,0.553,0.480,0.253,0.227,�k�k��,1.8,��
2015/05/25,14:50,0.553,0.332,0.595,0.548,0.481,0.252,0.228,�k�k��,1.0,��
2015/05/25,15:00,0.557,0.333,0.588,0.555,0.478,0.251,0.228,�k,1.9,��
2015/05/25,15:10,0.555,0.331,0.597,0.550,0.485,0.254,0.227,�k,2.2,��
2015/05/25,15:20,0.556,0.331,0.590,0.550,0.480,0.252,0.230,�k,2.5,��
2015/05/25,15:30,0.557,0.329,0.591,0.553,0.480,0.253,0.228,�k,2.9,�L
2015/05/25,15:40,0.554,0.332,0.596,0.547,0.483,0.253,0.228,�k�k��,3.2,�L
2015/05/25,15:50,0.556,0.331,0.590,0.552,0.477,0.254,0.228,�k,3.0,��
2015/05/25,16:00,0.554,0.332,0.597,0.548,0.483,0.255,0.229,�k,2.6,��
2015/05/25,16:10,0.558,0.330,0.591,0.553,0.477,0.253,0.228,�k�k��,3.4,�L
2015/05/25,16:20,0.554,0.332,0.594,0.550,0.483,0.256,0.229,�k�k��,1.6,��
2015/05/25,16:30,0.560,0.331,0.593,0.552,0.481,0.254,0.228,�k�k��,2.2,��
2015/05/25,16:40,0.554,0.331,0.590,0.553,0.480,0.254,0.230,�k,3.1,��
2015/05/25,16:50,0.558,0.330,0.596,0.549,0.480,0.253,0.228,�k�k��,2.1,��
2015/05/25,17:00,0.552,0.331,0.590,0.553,0.478,0.253,0.228,�k,2.5,��
2015/05/25,17:10,0.559,0.330,0.596,0.548,0.483,0.252,0.228,�k,1.5,��
2015/05/25,17:20,0.553,0.330,0.593,0.555,0.477,0.252,0.229,�k�k��,1.4,��
2015/05/25,17:30,0.558,0.331,0.595,0.548,0.483,0.254,0.228,�k,1.5,��
2015/05/25,17:40,0.552,0.330,0.595,0.552,0.476,0.253,0.228,�k�k��,0.7,��
2015/05/25,17:50,0.556,0.330,0.592,0.548,0.482,0.254,0.228,�k��,0.9,��
2015/05/25,18:00,0.556,0.330,0.596,0.552,0.479,0.253,0.229,�k�k��,1.3,��
2015/05/25,18:10,0.555,0.330,0.590,0.549,0.481,0.254,0.227,�k�k��,1.3,�L
2015/05/25,18:20,0.555,0.330,0.596,0.553,0.480,0.254,0.228,�k,1.5,�L
2015/05/25,18:30,0.555,0.330,0.591,0.549,0.480,0.254,0.227,�k�k��,2.2,��
2015/05/25,18:40,0.557,0.330,0.596,0.552,0.481,0.254,0.230,�k,2.6,��
2015/05/25,18:50,0.555,0.329,0.590,0.549,0.480,0.254,0.228,�k,2.5,��
2015/05/25,19:00,0.555,0.329,0.599,0.550,0.481,0.254,0.228,�k,2.5,��
2015/05/25,19:10,0.554,0.331,0.589,0.552,0.479,0.254,0.228,�k,2.7,��
2015/05/25,19:20,0.556,0.330,0.594,0.551,0.480,0.253,0.228,�k,3.0,��
2015/05/25,19:30,0.557,0.330,0.590,0.551,0.478,0.253,0.227,�k,3.1,��
2015/05/25,19:40,0.556,0.330,0.595,0.550,0.481,0.254,0.228,�k,3.7,��
2015/05/25,19:50,0.555,0.331,0.593,0.553,0.477,0.253,0.228,�k,3.3,��
2015/05/25,20:00,0.556,0.330,0.595,0.549,0.481,0.254,0.227,�k,5.0,��
2015/05/25,20:10,0.553,0.330,0.592,0.551,0.478,0.252,0.227,�k,4.4,��
2015/05/25,20:20,0.556,0.331,0.592,0.550,0.481,0.255,0.228,�k,4.1,��
2015/05/25,20:30,0.553,0.329,0.592,0.552,0.479,0.253,0.229,�k,4.0,�L
2015/05/25,20:40,0.558,0.331,0.593,0.550,0.480,0.254,0.227,�k,3.6,��
2015/05/25,20:50,0.554,0.330,0.594,0.551,0.479,0.253,0.229,�k,3.5,��
2015/05/25,21:00,0.557,0.331,0.594,0.551,0.480,0.254,0.227,�k,3.6,��
2015/05/25,21:10,0.554,0.329,0.593,0.550,0.482,0.252,0.229,�k,4.0,��
2015/05/25,21:20,0.559,0.332,0.592,0.550,0.480,0.254,0.227,�k,4.0,��
2015/05/25,21:30,0.552,0.331,0.596,0.552,0.480,0.253,0.230,�k,3.9,�L
2015/05/25,21:40,0.557,0.331,0.591,0.550,0.477,0.254,0.229,�k,3.9,�L
2015/05/25,21:50,0.551,0.330,0.592,0.551,0.481,0.253,0.228,�k,2.3,�L
2015/05/25,22:00,0.558,0.331,0.592,0.549,0.479,0.253,0.228,�k,2.5,��
2015/05/25,22:10,0.551,0.329,0.594,0.551,0.479,0.253,0.228,�k,3.5,��
2015/05/25,22:20,0.557,0.333,0.592,0.554,0.475,0.254,0.227,�k,4.1,��
2015/05/25,22:30,0.553,0.329,0.594,0.551,0.482,0.254,0.228,�k,4.3,��
2015/05/25,22:40,0.557,0.332,0.591,0.551,0.477,0.254,0.228,�k,3.9,��
2015/05/25,22:50,0.552,0.330,0.594,0.552,0.483,0.252,0.228,�k,3.6,��
2015/05/25,23:00,0.556,0.332,0.592,0.552,0.478,0.254,0.229,�k,3.9,��
2015/05/25,23:10,0.552,0.330,0.593,0.548,0.481,0.253,0.228,�k,4.2,��
2015/05/25,23:20,0.557,0.332,0.593,0.553,0.477,0.253,0.227,�k,4.3,��
2015/05/25,23:30,0.554,0.329,0.594,0.549,0.483,0.253,0.229,�k,5.0,��
2015/05/25,23:40,0.558,0.332,0.592,0.553,0.478,0.254,0.228,�k,4.5,��
2015/05/25,23:50,0.554,0.330,0.595,0.550,0.483,0.252,0.228,�k,3.9,��
